Tracking 22882 objects as of 18-Apr-2021
HD Live streaming from Space Station
objects crossing your sky now

METEOR 2-17 DEB

Track METEOR 2-17 DEB now!
10-day predictions


NORAD ID: 35373
Int'l Code: 1988-005AH
Perigee: 908.5 km
Apogee: 939.6 km
Inclination: 82.5 °
Period: 103.3 minutes
Semi major axis: 7295 km
RCS: 0.0092 m2 (small)
Launch date: January 30, 1988
Source: Commonwealth of Independent States (former USSR) (CIS)
Launch site: PLESETSK MISSILE AND SPACE COMPLEX (PKMTR)

Note: This is SATELLITE DEBRIS
aabbcc
Your satellite tracking list
Your tracking list is empty




NASA's NSSDC Master Catalog

Two Line Element Set (TLE):
1 35373U 88005AH  21108.40546368  .00001392  00000-0  10526-2 0  9991
2 35373  82.5325 349.7157 0021331 304.5239  55.3912 13.93347742329923
Source of the keplerian elements: AFSPC